Weather observations for the past three days for
Olathe, Johnson County Executive Airport
Imperial (Metric)
Date Time (cdt) Wind (mph) Vis. (mi.) Weather Sky Cond. Temperature (ºF) Relative Humidity Wind Chill (°F) Heat Index (°F) Pressure Precipitation (in)
Air Dwpt 6 hour altimeter (in) sea level (mb) 1 hr 3 hr 6 hr
Max. Min.
17 07:53 N 10 10.00 Fair CLR 71.1 64 79% 30.04 1016.0
17 05:53 N 7 10.00 Fair CLR 68 64.9 90% 30.01 1014.9
17 04:53 NE 5 10.00 Fair CLR 68 64.9 90% 29.97 1013.7
17 03:53 NE 6 10.00 Fair CLR 69.1 64.9 87% 29.97 1013.8
17 02:53 NE 8 10.00 Fair CLR 70 64.9 84% 29.97 1013.7
17 01:53 NE 9 10.00 Fair CLR 72 66 82% 29.97 1013.8
17 00:53 NE 8 10.00 Fair CLR 73 69.1 84.9 73 87% 29.97 1013.5
16 23:53 N 10 10.00 Fair CLR 75 70 84% 75 29.96 1013.5
16 22:53 NE 7 10.00 Fair CLR 75.9 71.1 85% 76 29.96 1013.3
16 21:53 N 8 10.00 Fair CLR 79 73 82% 82 29.94 1012.5
16 20:53 N 3 10.00 Fair CLR 80.1 72 76% 84 29.91 1011.5
16 19:53 NE 3 10.00 NULL NULL 82.9 72 70% 88 29.91 1011.3
16 18:53 Calm 10.00 Partly Cloudy SCT048 84.9 72 86 78.1 65% 91 29.91 1011.4
16 17:53 Vrbl 6 10.00 A Few Clouds FEW035 FEW049 86 71.1 61% 92 29.92 1011.8
16 16:53 W 3 10.00 Overcast OVC055 82.9 70 65% 87 29.94 1012.3
16 15:53 Calm 10.00 Overcast BKN032 OVC041 82 70 67% 86 29.94 1012.4
16 14:53 S 5 10.00 A Few Clouds FEW032 81 70 69% 84 29.92 1011.9
16 13:53 S 10 10.00 Fair CLR 80.1 72 76% 84 29.9 1011.1
16 12:53 NE 5 10.00 Fair CLR 78.1 71.1 81 72 79% 80 29.87 1010.0 0.02
16 11:53 E 7 10.00 A Few Clouds FEW036 75 71.1 88% 75 29.86 1009.8
16 10:53 Calm 10.00 Light Rain SCT049 BKN090 OVC110 73 70 90% 29.87 1010.0 0.02
16 09:53 N 6 10.00 Overcast FEW070 OVC100 73 66 79% 29.9 1011.2
16 08:53 NW 13 G 31 10.00 Thunderstorm FEW020 SCT085 75 64.9 71% 77 29.89 1010.9
16 07:53 SW 7 10.00 Fair CLR 80.1 72 76% 84 29.85 1009.2
16 06:53 SW 7 10.00 Fair CLR 79 71.1 84.9 78.1 77% 82 29.8 1007.6
16 05:53 SW 6 10.00 Fair CLR 79 72 79% 82 29.79 1007.2
16 04:53 W 3 10.00 Fair CLR 81 71.1 72% 85 29.79 1007.0
16 03:53 S 3 10.00 Fair CLR 78.1 72 82% 80 29.78 1006.9
16 02:53 SW 3 10.00 Fair CLR 82 72 72% 87 29.79 1007.0
16 01:53 W 5 10.00 Fair CLR 84 72 67% 90 29.8 1007.4
16 00:53 S 10 10.00 Fair CLR 84.9 73 91.9 84 68% 92 29.79 1007.2
15 23:53 S 8 10.00 Fair CLR 84.9 73 68% 92 29.79 1007.2
15 22:53 S 9 10.00 Fair CLR 84.9 73.9 70% 92 29.79 1007.2
15 21:53 S 8 10.00 Fair CLR 86 75 70% 95 29.77 1006.7
15 20:53 S 7 10.00 Fair CLR 87.1 75 67% 97 29.76 1006.1
15 19:53 S 10 10.00 Fair CLR 90 75 62% 100 29.74 1005.4
15 18:53 S 13 G 18 10.00 Fair CLR 91.9 73.9 96.1 91 56% 102 29.74 1005.6
15 17:53 S 10 10.00 Fair CLR 91.9 75 58% 103 29.76 1006.1
15 16:53 S 16 G 24 10.00 Fair CLR 95 73.9 51% 106 29.78 1006.8
15 15:53 SW 15 G 23 10.00 Fair CLR 95 73 49% 105 29.8 1007.7
15 14:53 S 13 G 22 10.00 Fair CLR 95 75 53% 107 29.83 1008.4
15 13:53 S 12 G 22 10.00 Fair CLR 93 75.9 58% 106 29.84 1008.8
15 12:53 S 10 10.00 Fair CLR 91 75.9 91 78.1 61% 103 29.86 1009.4
15 11:53 S 14 G 22 10.00 Fair CLR 88 73.9 63% 97 29.85 1009.3
15 10:53 S 15 G 23 10.00 Fair CLR 86 73 65% 93 29.86 1009.8
15 09:53 S 14 G 26 10.00 Fair CLR 84 73 70% 90 29.87 1010.1
15 08:53 S 12 10.00 Fair CLR 81 72 74% 85 29.89 1010.6
15 07:53 S 10 G 21 10.00 Fair CLR 79 72 79% 82 29.89 1010.5
15 06:53 S 8 10.00 Fair CLR 78.1 72 82 77 82% 80 29.89 1010.6
15 05:53 S 6 10.00 Fair CLR 78.1 72 82% 80 29.9 1010.9
15 04:53 S 7 10.00 Fair CLR 79 72 79% 82 29.89 1010.7
15 03:53 S 7 10.00 Fair CLR 79 73 82% 82 29.89 1010.8
15 01:53 S 9 10.00 Fair CLR 81 73 77% 86 29.92 1011.7
15 00:53 S 8 10.00 Fair CLR 82 73.9 90 82 77% 88 29.93 1011.9
14 23:53 S 9 10.00 Fair CLR 82 73.9 77% 88 29.93 1012.0
14 22:53 S 7 10.00 Fair CLR 82 73.9 77% 88 29.92 1011.7
14 21:53 S 6 10.00 Fair CLR 82.9 75 77% 90 29.91 1011.5
14 20:53 S 7 10.00 Fair CLR 84.9 73.9 70% 92 29.91 1011.3
14 19:53 S 7 10.00 Fair CLR 88 75 66% 98 29.91 1011.3
14 18:53 S 9 0.00 NULL NULL 90 75 91.9 87.1 62% 100 29.91 1011.5
14 16:53 S 15 G 21 10.00 Fair CLR 91.9 75.9 60% 104 29.93 1012.0
14 15:53 S 14 G 22 10.00 Fair CLR 91.9 75 58% 103 29.95 1012.7
14 14:53 SW 8 G 21 10.00 Fair CLR 91 75 59% 102 29.96 1013.1
14 13:53 SW 13 10.00 Fair CLR 90 75 62% 100 29.97 1013.3
14 12:53 S 13 G 21 10.00 Fair CLR 88 75 88 75.9 66% 98 29.99 1013.9 0.01
14 11:53 SW 14 G 18 10.00 Fair CLR 87.1 73.9 65% 95 30.01 1014.7
14 10:53 Vrbl 7 10.00 Fair CLR 82.9 71.1 67% 88 30.05 1016.3
14 09:53 S 14 10.00 A Few Clouds FEW090 82 73 74% 87 29.98 1014.0 0.01
14 08:53 S 14 10.00 A Few Clouds FEW090 78.1 71.1 79% 80 30.02 1015.1
Date Time (cdt) Wind (mph) Vis. (mi.) Weather Sky Cond. Air Dwpt Max. Min. Relative Humidity Wind Chill (°F) Heat Index (°F) altimeter (in) sea level (mb) 1 hr 3 hr 6 hr
6 hour
Temperature (ºF) Pressure Precipitation (in)